Date,TemperatureHighF,TemperatureAvgF,TemperatureLowF,DewpointHighF,DewpointAvgF,DewpointLowF,HumidityHigh,HumidityAvg,HumidityLow,PressureMaxIn,PressureMinIn,WindSpeedMaxMPH,WindSpeedAvgMPH,GustSpeedMaxMPH,PrecipitationSumIn
2013-1-1,38,23,10,20,10,-3,68,56,34,30.04,29.71,8,3,13,0.00
2013-1-2,26,20,11,15,10,2,73,65,56,30.01,29.87,11,3,14,0.00
2013-1-3,29,22,15,23,13,1,80,66,51,29.98,29.86,14,4,20,0.00
2013-1-4,32,27,21,21,16,13,75,64,52,30.00,29.84,19,7,30,0.00
2013-1-5,35,26,17,29,19,11,88,75,59,30.10,29.85,11,2,14,0.00
2013-1-6,35,33,32,31,28,24,86,80,72,30.09,29.74,13,4,19,0.04
2013-1-7,37,31,28,24,21,17,75,67,54,30.19,29.98,13,4,21,0.01
2013-1-8,37,29,22,24,21,16,79,70,60,30.06,29.97,11,2,15,0.00
2013-1-9,47,38,29,33,26,19,83,62,34,30.26,29.86,21,7,29,0.00
2013-1-10,45,33,22,31,24,16,85,70,46,30.40,30.02,11,3,14,0.08
2013-1-11,57,44,35,51,41,31,98,89,73,30.02,29.72,14,4,21,0.56
2013-1-12,60,51,46,50,46,43,96,86,68,29.91,29.78,11,2,14,0.01
2013-1-13,49,38,30,47,36,26,96,92,81,29.98,29.67,13,3,17,0.61
2013-1-14,29,24,18,26,15,10,87,69,58,30.36,29.98,8,1,10,0.00
2013-1-15,31,23,14,18,13,8,78,66,52,30.35,30.07,4,1,6,0.00
2013-1-16,38,29,20,25,15,8,78,59,31,30.08,29.75,16,4,24,0.00
2013-1-17,36,29,18,26,16,-5,77,59,34,30.23,29.88,17,6,22,0.00
2013-1-18,34,25,14,20,11,0,66,55,43,30.34,29.91,17,4,27,0.00
2013-1-19,47,41,34,33,27,19,66,57,50,29.90,29.52,18,7,27,0.00
2013-1-20,44,22,15,33,4,-2,65,46,37,30.10,29.50,31,12,45,0.04
2013-1-21,17,12,3,8,-2,-13,72,52,34,30.06,29.87,17,6,22,0.00
2013-1-22,10,4,-2,-4,-13,-22,61,45,32,30.17,30.00,17,6,22,0.00
2013-1-23,17,10,2,5,-2,-9,70,57,43,30.18,28.63,11,3,16,0.00
2013-1-24,20,13,7,5,-3,-12,70,50,25,30.48,30.02,10,3,14,0.00
2013-1-25,21,17,13,12,6,-3,73,63,49,30.40,29.93,9,2,13,0.00
2013-1-26,29,21,14,14,9,3,78,62,39,30.37,29.96,11,2,15,0.00
2013-1-27,29,22,11,26,12,2,88,66,45,30.39,30.05,14,3,18,0.00
2013-1-28,45,37,29,44,35,26,98,93,86,30.07,29.79,10,2,13,0.19
2013-1-29,58,46,35,55,44,33,99,95,89,29.96,28.33,11,4,21,0.61
2013-1-30,61,50,32,57,47,27,98,92,80,29.44,29.10,20,5,33,0.39
2013-1-31,32,22,15,27,11,5,81,62,51,29.79,29.19,26,11,41,0.06